User: anonymous   Login
Location: Pabrico
(37.5827°N, 122.0063°W)
Time: 19:34:57
(UTC+00:00)
Language:

Cosmos 2278 Rocket - Orbit

View from above orbital plane
View from above orbital plane
View from above satellite
View from above satellite

Ground track
Ground track

The orbit data is extracted from the following two-line orbital elements,

1 23088U 94023B   24166.56927385 -.00000224  00000-0 -91481-4 0  9990
2 23088  71.0005 320.3556 0004076 215.1945 144.8909 14.14849526556537
Epoch (UTC): 14 June 2024 13:39:45
Eccentricity: 0.0004076
inclination: 71.0005°
perigee height: 840 km
apogee height: 846 km
right ascension of ascending node: 320.3556°
argument of perigee: 215.1945°
revolutions per day: 14.14849526
mean anomaly at epoch: 144.8909°
orbit number at epoch: 55653

The dashed part of the orbit path shows where the satellite is in the earth's shadow,  

DLR